Gore Bay, Ontario

1:12 AM EDT on April 28, 2017 (GMT -0400)
Gore Bay-Manitoulin

Weather History for CYZE - September, 2013

Change the Weather History Date:

Friday, September 27, 2013

  Actual Average Record
Temperature  
Mean Temperature 60 °F -  
Max Temperature 75 °F 54 °F 77 °F (2014)
Min Temperature 46 °F 41 °F 35 °F (2012)
Degree Days  
Heating Degree Days 4    
Growing Degree Days 10 (Base 50)    
Moisture  
Dew Point 50 °F    
Average Humidity 75    
Maximum Humidity 94    
Minimum Humidity 34    
Precipitation  
Precipitation 0.00 in 0.10 in - ()
Sea Level Pressure  
Sea Level Pressure 30.22 in    
Wind  
Wind Speed 4 mph ()    
Max Wind Speed 10 mph    
Max Gust Speed -    
Visibility 9.0 miles    
Events      
Averages and records for this station are not official NWS values.
T = Trace of Precipitation, MM = Missing Value Source: Averaged Metar Reports

Daily Weather History Graph

Daily Weather History Graph

Search for Another Location

Airport or City:

Trip Planner

Search our weather history database for the weather conditions in past years. The results will help you decide how hot, cold, wet, or windy it might be!

Date:

Astronomy

Sep. 27, 2013 Rise Set
Actual Time 7:23 AM EDT 7:17 PM EDT
Civil Twilight 6:54 AM EDT 7:47 PM EDT
Nautical Twilight 6:19 AM EDT 8:21 PM EDT
Astronomical Twilight 5:43 AM EDT 8:57 PM EDT
Moon 12:01 AM EDT (9/27) 3:11 PM EDT (9/27)
Length of Visible Light 12h 53m
Length of Day
11h 53m
Last Quarter, 45% of the Moon is Illuminated
Sep 27
Last Quarter
Oct 4
New
Oct 11
First Quarter
Oct 18
Full
Oct 26
Last Quarter

Hourly Weather History & Observations

Time (EDT) Temp. Windchill Dew Point Humidity Pressure Visibility Wind Dir Wind Speed Gust Speed Precip Events Conditions
12:00 AM 50.0 °F - 48.2 °F 94% 30.17 in 9.0 mi East 2.3 mph - N/A   Clear
1:00 AM 50.0 °F - 48.2 °F 94% 30.18 in 9.0 mi East 2.3 mph - N/A   Clear
2:00 AM 52 °F - 49 °F 88% 30.17 in - ENE 3.5 mph - -  
2:00 AM 48.2 °F - 46.4 °F 93% 30.19 in 9.0 mi East 4.6 mph - N/A   Clear
3:00 AM 44.6 °F 43.1 °F 42.8 °F 93% 30.19 in 9.0 mi East 3.5 mph - N/A   Clear
4:00 AM 48.2 °F - 46.4 °F 93% 30.19 in 9.0 mi East 2.3 mph - N/A   Clear
5:00 AM 48.2 °F - 46.4 °F 93% 30.21 in 9.0 mi ESE 2.3 mph - N/A   Clear
6:00 AM 46.4 °F 45.2 °F 44.6 °F 93% 30.22 in 9.0 mi East 3.5 mph - N/A   Clear
7:00 AM 50.0 °F - 46.4 °F 87% 30.23 in 9.0 mi Calm Calm - N/A   Clear
8:00 AM 51 °F - 48 °F 85% 30.24 in - SSE 3.5 mph - -  
8:00 AM 46.4 °F - 44.6 °F 93% 30.25 in 9.0 mi Calm Calm - N/A   Clear
9:00 AM 55.4 °F - 53.6 °F 94% 30.25 in 9.0 mi Calm Calm - N/A   Clear
10:00 AM 64.4 °F - 51.8 °F 64% 30.25 in 9.0 mi South 5.8 mph - N/A   Clear
11:00 AM 66.2 °F - 51.8 °F 60% 30.26 in 9.0 mi South 5.8 mph - N/A   Clear
12:00 PM 68.0 °F - 50.0 °F 52% 30.26 in 9.0 mi South 8.1 mph - N/A   Clear
1:00 PM 69.8 °F - 50.0 °F 49% 30.26 in 9.0 mi SSW 8.1 mph - N/A   Clear
2:00 PM 72 °F - 49 °F 34% 30.22 in - SSW 9.2 mph - -  
2:00 PM 69.8 °F - 51.8 °F 53% 30.25 in 9.0 mi South 9.2 mph - N/A   Clear
3:00 PM 69.8 °F - 51.8 °F 53% 30.24 in 9.0 mi South 9.2 mph - N/A   Clear
4:00 PM 69.8 °F - 51.8 °F 53% 30.23 in 9.0 mi South 9.2 mph - N/A   Clear
5:00 PM 69.8 °F - 51.8 °F 53% 30.22 in 9.0 mi South 10.4 mph - N/A   Clear
6:00 PM 66.2 °F - 53.6 °F 64% 30.22 in 9.0 mi South 9.2 mph - N/A   Clear
7:00 PM 64.4 °F - 55.4 °F 73% 30.22 in 9.0 mi SSE 4.6 mph - N/A   Clear
8:00 PM 61 °F - 51 °F 62% 30.21 in - South 6.9 mph - -  
8:00 PM 59.0 °F - 53.6 °F 82% 30.22 in 9.0 mi Calm Calm - N/A   Clear
9:00 PM 59.0 °F - 53.6 °F 82% 30.21 in 9.0 mi SE 6.9 mph - N/A   Clear
10:00 PM 57.2 °F - 53.6 °F 88% 30.22 in 9.0 mi SSE 6.9 mph - N/A   Clear
11:00 PM 57.2 °F - 51.8 °F 82% 30.22 in 9.0 mi SE 9.2 mph - N/A   Clear